Tracking 25612 objects as of 19-May-2022
HD Live streaming from Space Station
objects crossing your sky now

COSMOS 2251 DEB

Track COSMOS 2251 DEB now!
10-day predictions


NORAD ID: 35836
Int'l Code: 1993-036ATJ
Perigee: 723.8 km
Apogee: 785.3 km
Inclination: 74.0 °
Period: 99.8 minutes
Semi major axis: 7125 km
RCS: 0.0112 m2 (small)
Launch date: June 16, 1993
Source: Commonwealth of Independent States (former USSR) (CIS)
Launch site: PLESETSK MISSILE AND SPACE COMPLEX (PKMTR)

Note: This is SATELLITE DEBRIS
aabbcc
Your satellite tracking list
Your tracking list is empty




NASA's NSSDC Master Catalog

Two Line Element Set (TLE):
1 35836U 93036ATJ 22138.67244661  .00004659  00000-0  13724-2 0  9991
2 35836  74.0413 116.5991 0043206 144.0319 216.3760 14.43359263445698
Source of the keplerian elements: AFSPC